Flag for Canada Weather past 2 weeks in Halton Hills, Ontario, Canada

Now
77 °F

Partly sunny.


Feels Like: 79 °F
Forecast: N/A
Wind: 8 mph from South

Location: Toronto Pearson International Airport

Current Time: Aug 30, 2015 at 6:50:41 PM

Latest Report: Aug 30, 2015 at 5:00 PM


Visibility: 15 mi

Pressure: 30.01 "Hg

Humidity: 61%

Dew point: 63 °F

Location of Halton HillsLocation

Historic Weather in Halton Hills — Graph

°F

Halton Hills temperature yesterday

Maximum temperature yesterday: 75 °F (at 3:00 PM)
Minimum temperature yesterday: 59 °F (at 6:00 AM)
Average temperature yesterday: 68 °F

Past Weeks' High & Low Weather Summary

 TemperatureHumidityPressure
High90 °F (Aug 17, 3:00 PM)100% (Aug 19, 5:03 AM)30.22 "Hg (Aug 19, 5:03 AM)
Low54 °F (Aug 28, 5:00 AM)43% (Aug 17, 5:00 PM)29.71 "Hg (Aug 20, 6:00 AM)
Average69 °F71%30.00 "Hg
* Reported Aug 15 5:00 PM — Aug 30 5:00 PM, Halton Hills, Weather by CustomWeather, © 2015

Note: Actual official high and low records may vary slightly from our data, if they occured in-between our weather recording intervals... More about our weather records

Advertising

Halton Hills weather history for previous 24 hours

 ConditionsComfort  
Time TempWeatherWind HumidityBarometerVisibility
5:00 PM
Sun, Aug 30
77 °FPartly sunny.8 mph61%30.01 "Hg15 mi
4:00 PM77 °FPartly sunny.7 mph61%30.02 "Hg15 mi
3:00 PM77 °FScattered clouds.7 mph61%30.04 "Hg15 mi
2:00 PM75 °FBroken clouds.8 mph65%30.05 "Hg15 mi
1:00 PM77 °FBroken clouds.6 mph61%30.06 "Hg15 mi
12:00 PM75 °FPartly sunny.2 mph61%30.08 "Hg15 mi
11:00 AM73 °FPartly sunny.No wind65%30.09 "Hg15 mi
10:00 AM70 °FBroken clouds.5 mph73%30.09 "Hg10 mi
9:00 AM68 °FPartly sunny.No wind78%30.09 "Hg10 mi
8:00 AM66 °FPartly sunny.2 mph83%30.08 "Hg10 mi
7:00 AM66 °FPassing clouds.5 mph83%30.07 "Hg10 mi
6:00 AM66 °FPassing clouds.3 mph83%30.06 "Hg15 mi
5:00 AM68 °FMostly cloudy.2 mph73%30.05 "Hg15 mi
4:00 AM68 °FMostly cloudy.No wind73%30.05 "Hg15 mi
3:00 AM68 °FMostly cloudy.No wind73%30.06 "Hg15 mi
2:00 AM68 °FOvercast.3 mph73%30.06 "Hg15 mi
1:00 AM68 °FMostly cloudy.3 mph73%30.07 "Hg15 mi
12:00 AM68 °FPartly cloudy.3 mph73%30.08 "Hg15 mi
11:00 PM
Sat, Aug 29
70 °FMostly cloudy.2 mph69%30.08 "Hg15 mi
10:00 PM70 °FPartly cloudy.No wind69%30.08 "Hg15 mi
9:00 PM72 °FPartly cloudy.No wind65%30.08 "Hg15 mi
8:00 PM72 °FCloudy.5 mph65%30.07 "Hg15 mi
7:00 PM72 °FMore clouds than sun.6 mph65%30.08 "Hg15 mi
6:00 PM73 °FMostly cloudy.6 mph61%30.08 "Hg15 mi
Weather by CustomWeather, © 2015

See weather overviewHow to use our weather pages